Tucson, AZ

4:16 PM MST on April 24, 2018 (GMT -0700)
Tucson International

Weather History for KTUS - January, 2015

Change the Weather History Date:

Wednesday, January 14, 2015

  Actual Average Record
Temperature  
Mean Temperature 52 °F 52 °F  
Max Temperature 60 °F 65 °F 81 °F (1912)
Min Temperature 44 °F 40 °F 21 °F (2013)
Degree Days  
Heating Degree Days 13 13  
Month to date heating degree days 174 182  
Since 1 July heating degree days 642 793  
Cooling Degree Days 0 0  
Month to date cooling degree days 0 0  
Year to date cooling degree days 0 0  
Growing Degree Days 2 (Base 50)    
Moisture  
Dew Point 44 °F    
Average Humidity 72    
Maximum Humidity 100    
Minimum Humidity 44    
Precipitation  
Precipitation T in 0.03 in 0.72 in (1920)
Month to date precipitation 0.31 0.42  
Year to date precipitation 0.31 0.42  
Sea Level Pressure  
Sea Level Pressure 30.10 in    
Wind  
Wind Speed 4 mph (SW)    
Max Wind Speed 20 mph    
Max Gust Speed 25 mph    
Visibility 5 miles    
Events Fog    
T = Trace of Precipitation, MM = Missing Value Source: NWS Daily Summary

Daily Weather History Graph

Daily Weather History Graph

Search for Another Location

Airport or City:

Astronomy

Jan. 14, 2015 Rise Set
Actual Time 7:25 AM MST 5:40 PM MST
Civil Twilight 6:58 AM MST 6:07 PM MST
Nautical Twilight 6:28 AM MST 6:37 PM MST
Astronomical Twilight 5:58 AM MST 7:06 PM MST
Moon 1:30 AM MST (1/14) 12:49 PM MST (1/14)
Length of Visible Light 11h 08m
Length of Day
10h 15m
Last Quarter, 36% of the Moon is Illuminated
Jan 14
Last Quarter
Jan 20
New
Jan 26
First Quarter
Feb 3
Full
Feb 11
Last Quarter

Hourly Weather History & Observations

Time (MST) Temp. Windchill Dew Point Humidity Pressure Visibility Wind Dir Wind Speed Gust Speed Precip Events Conditions
12:53 AM 51.1 °F - 48.0 °F 89% 30.02 in 10.0 mi Calm Calm - N/A   Overcast
1:53 AM 50.0 °F - 46.9 °F 89% 30.01 in 10.0 mi NE 3.5 mph - N/A   Partly Cloudy
2:53 AM 48.9 °F - 46.0 °F 90% 30.01 in 10.0 mi Calm Calm - N/A   Clear
3:53 AM 45.0 °F 42.6 °F 43.0 °F 93% 30.02 in 3.0 mi SW 4.6 mph - N/A   Partly Cloudy
3:55 AM 45.0 °F 42.6 °F 43.0 °F 93% 30.07 in 1.5 mi WSW 4.6 mph - N/A   Scattered Clouds
3:57 AM 45.0 °F 42.6 °F 43.0 °F 93% 30.07 in 10.0 mi WSW 4.6 mph - N/A   Scattered Clouds
4:27 AM 46.0 °F - 44.1 °F 93% 30.07 in 7.0 mi Calm Calm - N/A   Mostly Cloudy
4:53 AM 46.0 °F 44.8 °F 44.1 °F 93% 30.02 in 2.0 mi SE 3.5 mph - N/A   Overcast
4:55 AM 46.0 °F 44.8 °F 44.1 °F 93% 30.07 in 0.8 mi SE 3.5 mph - N/A   Overcast
5:04 AM 46.0 °F - 44.1 °F 93% 30.06 in 2.0 mi Calm Calm - N/A   Overcast
5:32 AM 46.0 °F - 45.0 °F 96% 30.08 in 0.5 mi Calm Calm - N/A   Mist
5:43 AM 46.9 °F - 46.0 °F 97% 30.08 in 0.2 mi Calm Calm - N/A   Mist
5:53 AM 46.9 °F - 46.0 °F 97% 30.04 in 0.2 mi Calm Calm - N/A Fog Fog
6:53 AM 46.9 °F - 46.0 °F 97% 30.05 in 0.2 mi Calm Calm - N/A Fog Fog
7:53 AM 46.9 °F - 46.0 °F 97% 30.07 in 0.5 mi WSW 3.5 mph - N/A Fog Fog
8:07 AM 46.9 °F - 45.0 °F 93% 30.11 in 0.2 mi Calm Calm - N/A Fog Fog
8:34 AM 46.9 °F - 46.0 °F 97% 30.12 in 0.2 mi WSW 4.6 mph - N/A Fog Fog
8:46 AM 46.9 °F - 46.0 °F 97% 30.12 in 0.5 mi SW 4.6 mph - N/A Fog Fog
8:53 AM 48.0 °F - 46.0 °F 93% 30.09 in 1.5 mi SSW 3.5 mph - N/A   Overcast
8:56 AM 48.0 °F - 46.0 °F 93% 30.12 in 3.0 mi SW 4.6 mph - N/A   Overcast
8:58 AM 46.9 °F - 46.0 °F 97% 30.13 in 2.0 mi SW 3.5 mph - N/A   Overcast
9:13 AM 48.0 °F - 46.0 °F 93% 30.14 in 1.2 mi Calm Calm - N/A   Overcast
9:29 AM 48.0 °F - 46.0 °F 93% 30.15 in 2.0 mi SW 3.5 mph - N/A   Overcast
9:45 AM 48.0 °F - 46.0 °F 93% 30.15 in 2.0 mi South 3.5 mph - N/A   Overcast
9:53 AM 48.0 °F - 46.0 °F 93% 30.12 in 2.0 mi Variable 3.5 mph - N/A   Overcast
10:00 AM 48.9 °F - 46.9 °F 93% 30.15 in 5.0 mi SE 4.6 mph - N/A   Overcast
10:23 AM 48.9 °F - 46.0 °F 90% 30.16 in 4.0 mi Calm Calm - N/A   Overcast
10:53 AM 50.0 °F - 46.0 °F 86% 30.11 in 4.0 mi Calm Calm - N/A   Scattered Clouds
11:53 AM 54.0 °F - 45.0 °F 72% 30.09 in 10.0 mi Calm Calm - N/A   Clear
12:53 PM 55.9 °F - 42.1 °F 60% 30.06 in 10.0 mi West 9.2 mph - N/A   Scattered Clouds
1:53 PM 59.0 °F - 41.0 °F 51% 30.04 in 10.0 mi West 10.4 mph - N/A   Scattered Clouds
2:53 PM 59.0 °F - 37.0 °F 44% 30.05 in 10.0 mi NNW 10.4 mph - N/A   Mostly Cloudy
3:53 PM 55.0 °F - 39.0 °F 55% 30.09 in 10.0 mi NNW 10.4 mph - 0.00 in   Mostly Cloudy
4:53 PM 57.9 °F - 41.0 °F 53% 30.10 in 10.0 mi North 6.9 mph - N/A   Clear
5:53 PM 55.0 °F - 41.0 °F 59% 30.12 in 10.0 mi North 3.5 mph - N/A   Clear
6:53 PM 52.0 °F - 41.0 °F 66% 30.15 in 10.0 mi Calm Calm - N/A   Clear
7:53 PM 52.0 °F - 41.0 °F 66% 30.16 in 10.0 mi Calm Calm - N/A   Clear
8:53 PM 50.0 °F - 43.0 °F 77% 30.17 in 10.0 mi ENE 3.5 mph - N/A   Clear
9:53 PM 46.9 °F - 41.0 °F 80% 30.19 in 10.0 mi SE 3.5 mph - N/A   Clear
10:53 PM 46.0 °F 44.8 °F 41.0 °F 83% 30.21 in 10.0 mi SSE 3.5 mph - N/A   Clear
11:53 PM 46.9 °F - 39.9 °F 77% 30.21 in 10.0 mi ESE 3.5 mph - N/A   Clear